TimeEDT,TemperatureF,Dew PointF,Humidity,Sea Level PressureIn,VisibilityMPH,Wind Direction,Wind SpeedMPH,Gust SpeedMPH,PrecipitationIn,Events,Conditions,WindDirDegrees,DateUTC
12:15 AM,43.9,36.9,76,29.91,10.0,Calm,Calm,-,N/A,,Clear,0,2013-03-24 04:15:00
12:35 AM,44.1,37.2,77,29.91,10.0,Calm,Calm,-,N/A,,Clear,0,2013-03-24 04:35:00
12:55 AM,43.7,37.8,80,29.89,10.0,Calm,Calm,-,N/A,,Clear,0,2013-03-24 04:55:00
1:15 AM,43.9,38.5,81,29.89,10.0,Calm,Calm,-,N/A,,Clear,0,2013-03-24 05:15:00
1:35 AM,43.0,37.4,81,29.87,10.0,North,5.8,-,N/A,,Scattered Clouds,360,2013-03-24 05:35:00
1:55 AM,43.7,38.7,82,29.89,10.0,West,3.5,-,N/A,,Scattered Clouds,280,2013-03-24 05:55:00
2:15 AM,43.7,39.2,84,29.90,7.0,WSW,3.5,-,N/A,,Scattered Clouds,250,2013-03-24 06:15:00
2:35 AM,43.5,38.8,84,29.92,7.0,West,4.6,-,N/A,,Mostly Cloudy,270,2013-03-24 06:35:00
2:55 AM,43.9,39.2,84,29.92,7.0,Calm,Calm,-,N/A,,Overcast,0,2013-03-24 06:55:00
3:15 AM,43.9,39.4,84,29.88,7.0,Calm,Calm,-,N/A,Rain,Light Rain,0,2013-03-24 07:15:00
3:35 AM,43.7,39.4,85,29.86,7.0,Calm,Calm,-,N/A,Rain,Rain,0,2013-03-24 07:35:00
3:55 AM,43.2,39.9,88,29.86,5.0,Calm,Calm,-,N/A,Rain,Rain,0,2013-03-24 07:55:00
4:15 AM,42.8,40.5,91,29.84,4.0,Calm,Calm,-,N/A,Rain,Light Rain,0,2013-03-24 08:15:00
4:35 AM,42.3,40.6,94,29.85,2.0,Calm,Calm,-,0.01,Rain,Light Rain,0,2013-03-24 08:35:00
4:55 AM,42.8,40.6,92,29.84,3.0,Calm,Calm,-,0.02,Rain,Light Rain,0,2013-03-24 08:55:00
5:15 AM,42.3,40.8,95,29.83,2.0,Calm,Calm,-,0.01,Rain,Light Rain,0,2013-03-24 09:15:00
5:35 AM,42.4,41.0,95,29.81,2.5,NNE,4.6,-,0.02,Rain,Light Rain,20,2013-03-24 09:35:00
5:55 AM,42.3,40.6,94,29.81,3.0,NNE,3.5,-,0.03,Rain,Light Rain,30,2013-03-24 09:55:00
6:15 AM,42.3,40.3,93,29.80,4.0,NNE,4.6,-,0.01,Rain,Light Rain,20,2013-03-24 10:15:00
6:35 AM,42.1,40.1,93,29.80,4.0,NNE,3.5,-,0.01,Rain,Light Rain,30,2013-03-24 10:35:00
6:55 AM,42.1,40.1,93,29.78,3.0,NE,5.8,-,0.04,Rain,Heavy Rain,40,2013-03-24 10:55:00
7:15 AM,41.5,39.4,92,29.77,5.0,NE,9.2,-,0.01,Rain,Light Rain,50,2013-03-24 11:15:00
7:35 AM,41.0,38.8,92,29.74,4.0,NE,9.2,-,0.04,Rain,Rain,40,2013-03-24 11:35:00
7:55 AM,40.5,38.5,93,29.73,5.0,NNE,10.4,16.1,0.04,Rain,Light Rain,30,2013-03-24 11:55:00
8:15 AM,40.5,38.1,91,29.73,5.0,NNE,11.5,-,N/A,,Overcast,20,2013-03-24 12:15:00
8:35 AM,40.5,37.6,89,29.75,7.0,North,10.4,18.4,N/A,,Overcast,10,2013-03-24 12:35:00
8:55 AM,40.3,37.8,91,29.82,3.0,North,5.8,-,0.04,Rain,Heavy Rain,350,2013-03-24 12:55:00
9:15 AM,40.1,38.1,93,29.84,3.0,NNW,5.8,-,0.06,Rain,Heavy Rain,340,2013-03-24 13:15:00
9:35 AM,39.7,38.1,94,29.76,4.0,NE,12.7,17.3,0.09,Rain,Light Rain,50,2013-03-24 13:35:00
9:55 AM,39.6,37.8,93,29.75,5.0,NE,12.7,18.4,0.09,Rain,Rain,50,2013-03-24 13:55:00
10:15 AM,39.2,36.9,91,29.74,7.0,NE,15.0,18.4,N/A,,Overcast,50,2013-03-24 14:15:00
10:35 AM,39.2,36.7,91,29.74,7.0,NNE,9.2,13.8,N/A,,Overcast,30,2013-03-24 14:35:00
10:55 AM,38.7,36.3,91,29.74,4.0,NNE,15.0,19.6,0.01,Rain,Light Rain,20,2013-03-24 14:55:00
11:15 AM,38.3,36.5,93,29.74,3.0,NNE,13.8,17.3,0.01,Rain,Rain,30,2013-03-24 15:15:00
11:35 AM,38.5,36.9,94,29.72,4.0,NNE,12.7,19.6,0.03,Rain,Light Rain,20,2013-03-24 15:35:00
11:55 AM,38.7,36.9,93,29.69,5.0,NNE,15.0,21.9,0.03,Rain,Rain,20,2013-03-24 15:55:00
12:15 PM,38.5,36.5,93,29.69,5.0,NNE,15.0,21.9,N/A,Rain,Rain,20,2013-03-24 16:15:00
12:35 PM,38.5,36.5,93,29.68,4.0,NNE,15.0,-,0.01,Rain,Rain,20,2013-03-24 16:35:00
12:55 PM,37.9,36.1,93,29.69,4.0,North,10.4,17.3,0.02,Rain,Rain,360,2013-03-24 16:55:00
1:15 PM,37.6,35.8,93,29.68,4.0,North,11.5,18.4,0.02,Rain,Rain,10,2013-03-24 17:15:00
1:35 PM,37.8,36.1,94,29.65,5.0,NNE,10.4,-,0.03,Rain,Light Rain,20,2013-03-24 17:35:00
1:55 PM,37.6,36.0,94,29.66,2.0,NNE,9.2,17.3,0.06,Rain,Heavy Rain,20,2013-03-24 17:55:00
2:15 PM,37.6,36.1,95,29.65,3.0,NNE,6.9,-,0.03,Rain,Light Rain,30,2013-03-24 18:15:00
2:35 PM,37.8,36.1,94,29.63,3.0,NE,10.4,-,0.04,,Drizzle,40,2013-03-24 18:35:00
2:55 PM,37.6,36.0,94,29.63,4.0,NNE,10.4,-,0.04,,Drizzle,20,2013-03-24 18:55:00
3:15 PM,37.4,35.6,93,29.63,2.5,North,9.2,-,N/A,,Drizzle,350,2013-03-24 19:15:00
3:35 PM,37.6,36.0,94,29.63,2.0,NNE,10.4,16.1,N/A,,Drizzle,20,2013-03-24 19:35:00
3:55 PM,38.1,36.7,95,29.62,3.0,NNE,10.4,17.3,N/A,,Light Drizzle,30,2013-03-24 19:55:00
4:15 PM,37.8,36.1,94,29.60,5.0,NNE,9.2,-,N/A,,Overcast,30,2013-03-24 20:15:00
4:35 PM,38.3,36.5,93,29.59,10.0,NE,11.5,16.1,N/A,,Overcast,40,2013-03-24 20:35:00
4:55 PM,39.2,36.5,90,29.57,10.0,NE,11.5,-,N/A,,Overcast,40,2013-03-24 20:55:00
5:15 PM,39.2,36.0,88,29.54,10.0,ENE,12.7,16.1,N/A,,Overcast,60,2013-03-24 21:15:00
5:35 PM,39.2,35.4,86,29.56,10.0,NE,9.2,17.3,N/A,,Overcast,50,2013-03-24 21:35:00
5:55 PM,38.8,35.4,88,29.58,10.0,ENE,4.6,-,N/A,,Overcast,60,2013-03-24 21:55:00
6:15 PM,38.7,35.2,87,29.57,10.0,NE,6.9,-,N/A,,Overcast,50,2013-03-24 22:15:00
6:35 PM,38.5,35.1,87,29.58,10.0,ENE,3.5,-,N/A,,Overcast,60,2013-03-24 22:35:00
6:55 PM,38.3,34.9,87,29.58,10.0,ENE,4.6,-,N/A,,Overcast,70,2013-03-24 22:55:00
7:15 PM,38.3,35.1,88,29.58,10.0,ESE,4.6,-,N/A,,Overcast,110,2013-03-24 23:15:00
7:35 PM,37.9,34.5,87,29.61,10.0,East,4.6,-,N/A,,Overcast,90,2013-03-24 23:35:00
7:55 PM,37.4,34.7,90,29.60,4.0,ENE,5.8,-,N/A,,Light Drizzle,70,2013-03-24 23:55:00
8:15 PM,37.0,35.1,93,29.61,5.0,NE,3.5,-,N/A,,Light Drizzle,50,2013-03-25 00:15:00
8:35 PM,36.9,35.4,95,29.63,4.0,Calm,Calm,-,N/A,,Overcast,0,2013-03-25 00:35:00
8:55 PM,36.9,35.6,95,29.60,3.0,ENE,6.9,-,N/A,,Drizzle,70,2013-03-25 00:55:00
9:15 PM,36.3,35.1,95,29.59,3.0,ENE,6.9,-,N/A,,Overcast,60,2013-03-25 01:15:00
9:35 PM,36.3,35.1,95,29.59,10.0,ENE,6.9,-,N/A,,Overcast,70,2013-03-25 01:35:00
9:55 PM,36.1,34.7,94,29.59,10.0,East,5.8,-,N/A,,Overcast,80,2013-03-25 01:55:00
10:15 PM,36.1,34.9,95,29.59,7.0,East,4.6,-,N/A,,Overcast,90,2013-03-25 02:15:00
10:35 PM,36.0,34.7,95,29.60,5.0,East,4.6,-,N/A,Rain,Rain,100,2013-03-25 02:35:00
10:55 PM,35.8,34.3,94,29.59,7.0,ENE,4.6,-,N/A,Rain,Rain,70,2013-03-25 02:55:00
11:15 PM,35.6,34.3,95,29.59,7.0,NE,3.5,-,N/A,,Overcast,50,2013-03-25 03:15:00
11:35 PM,35.6,34.3,95,29.60,7.0,Calm,Calm,-,N/A,,Overcast,0,2013-03-25 03:35:00
11:55 PM,35.6,34.2,94,29.60,4.0,Calm,Calm,-,N/A,,Light Drizzle,0,2013-03-25 03:55:00